This is the latest recevied weather packets stored in our database for station/object KY0TEQ-13. If no packets are shown the sender has not sent any weather packets the latest 10 day(s).
| Time | Temp. | Humidity | Pressure | Rain* | Wind** | Luminosity | Snow |
|---|---|---|---|---|---|---|---|
| 1777518583 | 7.78° C | 28% | 1301.5 hPa | 0 mm | - | 0 W/m² | - |
| 1777518279 | 8.33° C | 26% | 1301.5 hPa | 0 mm | - | 0 W/m² | - |
| 1777517975 | 8.89° C | 25% | 1301.2 hPa | 0 mm | - | 0 W/m² | - |
| 1777517672 | 8.89° C | 24% | 1301.1 hPa | 0 mm | - | 0 W/m² | - |
| 1777517368 | 9.44° C | 24% | 1301 hPa | 0 mm | - | 0 W/m² | - |
| 1777517068 | 10° C | 22% | 1301 hPa | 0 mm | - | 0 W/m² | - |
| 1777516765 | 9.44° C | 22% | 1301.1 hPa | 0 mm | - | 0 W/m² | - |
| 1777516460 | 8.89° C | 22% | 1301 hPa | 0 mm | - | 0 W/m² | - |
| 1777516156 | 9.44° C | 22% | 1300.9 hPa | 0 mm | - | 0 W/m² | - |
| 1777515854 | 10° C | 21% | 1301 hPa | 0 mm | - | 0 W/m² | - |
| 1777515550 | 10.56° C | 20% | 1301 hPa | 0 mm | - | 0 W/m² | - |
| 1777515247 | 11.11° C | 20% | 1300.9 hPa | 0 mm | - | 0 W/m² | - |
| 1777514943 | 11.67° C | 19% | 1300.7 hPa | 0 mm | - | 1 W/m² | - |
| 1777514640 | 11.67° C | 17% | 1300.9 hPa | 0 mm | - | 2 W/m² | - |
| 1777514337 | 12.22° C | 17% | 1300.9 hPa | 0 mm | - | 3 W/m² | - |
| 1777514033 | 12.22° C | 16% | 1301 hPa | 0 mm | - | 5 W/m² | - |
| 1777513731 | 12.22° C | 15% | 1300.5 hPa | 0 mm | - | 8 W/m² | - |
| 1777513428 | 12.78° C | 14% | 1300.6 hPa | 0 mm | - | 11 W/m² | - |
| 1777512517 | 13.89° C | 13% | 1300.4 hPa | 0 mm | - | 21 W/m² | - |
| 1777511911 | 14.44° C | 11% | 1300.2 hPa | 0 mm | - | 29 W/m² | - |
| 1777510091 | 15° C | 13% | 1300.4 hPa | 0 mm | - | 78 W/m² | - |
| 1777508878 | 15.56° C | 14% | 1300.5 hPa | 0 mm | - | 128 W/m² | - |
| 1777508574 | 15° C | 12% | 1300.2 hPa | 0 mm | - | 143 W/m² | - |
| 1777508272 | 15.56° C | 12% | 1300.4 hPa | 0 mm | - | 153 W/m² | - |
| 1777507060 | 15.56° C | 11% | 1300.4 hPa | 0 mm | - | 215 W/m² | - |
* Rain latest hour (hover to see other rain measurements)
** Current wind speed in m/s (hover to see current wind gust speed)